Location: Gwatt
(46.7204°N, 7.6223°E)
Time: 19:56:34
(UTC+00:00)

Transit 2A - Pass Details

Date: 23 January 2021
Orbit: 600 x 958 km, 66.7° (Epoch: 26 February)

Event Time Altitude Azimuth Distance (km) Brightness Sun altitude
Rises 04:42:17 0° 236° (SW) 3,478 - -24.0°
Reaches altitude 10° 04:45:02 10° 244° (WSW) 2,491 - -23.5°
Maximum altitude 04:50:23 39° 312° (NW) 1,191 - -22.6°
Exits shadow 04:50:53 38° 326° (NW) 1,201 6.7 -22.5°
Drops below altitude 10° 04:55:17 10° 22° (NNE) 2,274 8.6 -21.8°
Sets 04:57:42 0° 30° (NNE) 3,142 9.5 -21.4°
